QPF
0.02 0.00 0.00 0.00 0.00 0.00 0.00 0.00 0.00 0.00 0.01 0.01 0.00 0.00 0.00 0.00 0.00 0.01 0.00 0.00 0.03 0.03 0.01 0.00 0.00 0.00 0.01 0.01 0.01 0.01 0.01 0.01 0.01
0.01 0.00 0.00 0.00 0.00 0.00 0.00 0.00 0.00 0.00 0.01 0.01 0.00 0.00 0.00 0.00 0.00 0.00 0.00 0.02 0.05 0.03 0.00 0.00 0.00 0.00 0.00 0.00 0.01 0.00 0.00 0.00 0.00
0.00 0.00 0.00 0.00 0.00 0.00 0.00 0.00 0.00 0.00 0.00 0.00 0.00 0.00 0.00 0.00 0.00 0.00 0.00 0.03 0.05 0.03 0.01 0.00 0.00 0.00 0.00 0.00 0.00 0.00 0.00 0.00 0.00
0.00 0.00 0.00 0.00 0.00 0.00 0.00 0.00 0.00 0.00 0.00 0.00 0.00 0.00 0.00 0.00 0.00 0.00 0.00 0.03 0.04 0.02 0.01 0.00 0.00 0.00 0.00 0.00 0.00 0.00 0.00 0.00 0.00
0.00 0.00 0.00 0.00 0.00 0.00 0.00 0.00 0.00 0.00 0.00 0.00 0.00 0.00 0.00 0.00 0.00 0.00 0.01 0.01 0.02 0.03 0.02 0.01 0.00 0.00 0.00 0.00 0.00 0.00 0.00 0.00 0.00
0.00 0.00 0.00 0.00 0.00 0.00 0.00 0.00 0.00 0.00 0.00 0.00 0.00 0.00 0.00 0.00 0.00 0.00 0.01 0.01 0.01 0.03 0.03 0.01 0.00 0.00 0.00 0.00 0.00 0.00 0.00 0.00 0.00
0.00 0.00 0.00 0.00 0.00 0.00 0.00 0.00 0.00 0.00 0.00 0.00 0.00 0.00 0.00 0.00 0.00 0.00 0.01 0.01 0.01 0.02 0.02 0.02 0.01 0.01 0.01 0.00 0.00 0.00 0.00 0.00 0.00
0.01 0.00 0.00 0.00 0.00 0.00 0.00 0.00 0.00 0.00 0.00 0.00 0.00 0.00 0.00 0.00 0.00 0.00 0.00 0.01 0.01 0.01 0.01 0.00 0.01 0.02 0.01 0.01 0.01 0.00 0.00 0.00 0.01
0.00 0.00 0.00 0.00 0.00 0.00 0.00 0.00 0.00 0.00 0.00 0.00 0.00 0.00 0.00 0.00 0.00 0.00 0.00 0.00 0.00 0.01 0.02 0.01 0.01 0.01 0.01 0.01 0.00 0.00 0.00 0.00 0.00
0.00 0.00 0.00 0.00 0.00 0.00 0.00 0.00 0.00 0.00 0.00 0.00 0.00 0.00 0.00 0.00 0.00 0.00 0.00 0.00 0.00 0.00 0.00 0.01 0.01 0.01 0.01 0.01 0.01 0.01 0.00 0.00 0.00
0.00 0.00 0.00 0.00 0.00 0.00 0.00 0.00 0.00 0.00 0.00 0.00 0.00 0.00 0.00 0.00 0.00 0.00 0.00 0.00 0.00 0.00 0.00 0.00 0.00 0.01 0.01 0.00 0.00 0.00 0.01 0.01 0.00
0.00 0.00 0.00 0.00 0.00 0.00 0.00 0.00 0.00 0.00 0.00 0.00 0.00 0.00 0.00 0.00 0.00 0.00 0.00 0.00 0.00 0.00 0.00 0.00 0.00 0.00 0.00 0.00 0.00 0.00 0.00 0.00 0.00
0.00 0.00 0.00 0.00 0.00 0.00 0.00 0.00 0.00 0.00 0.00 0.00 0.00 0.00 0.00 0.00 0.00 0.00 0.00 0.00 0.00 0.00 0.00 0.00 0.00 0.00 0.00 0.00 0.00 0.00 0.00 0.00 0.00
0.00 0.00 0.00 0.00 0.00 0.00 0.00 0.00 0.00 0.00 0.00 0.00 0.00 0.00 0.00 0.00 0.00 0.00 0.00 0.00 0.00 0.00 0.00 0.00 0.00 0.00 0.00 0.00 0.00 0.00 0.00 0.00 0.00
0.00 0.00 0.00 0.00 0.00 0.00 0.00 0.00 0.00 0.00 0.00 0.00 0.00 0.00 0.00 0.00 0.00 0.00 0.00 0.00 0.00 0.00 0.00 0.00 0.00 0.00 0.00 0.00 0.00 0.00 0.00 0.00 0.00
0.00 0.00 0.00 0.00 0.00 0.00 0.00 0.00 0.00 0.00 0.00 0.00 0.00 0.00 0.00 0.00 0.00 0.00 0.00 0.00 0.00 0.00 0.00 0.00 0.00 0.00 0.00 0.00 0.00 0.00 0.00 0.00 0.00
0.00 0.00 0.00 0.00 0.00 0.00 0.00 0.00 0.00 0.00 0.00 0.00 0.00 0.00 0.00 0.00 0.00 0.00 0.00 0.00 0.00 0.00 0.00 0.00 0.00 0.00 0.00 0.00 0.00 0.00 0.00 0.00 0.00
0.00 0.00 0.00 0.00 0.00 0.00 0.00 0.00 0.00 0.00 0.00 0.00 0.00 0.00 0.00 0.00 0.00 0.00 0.00 0.00 0.00 0.00 0.00 0.00 0.00 0.00 0.00 0.00 0.00 0.00 0.00 0.00 0.00
0.00 0.00 0.00 0.00 0.00 0.00 0.00 0.00 0.00 0.00 0.00 0.00 0.00 0.00 0.00 0.00 0.00 0.00 0.00 0.00 0.00 0.00 0.00 0.00 0.00 0.00 0.00 0.00 0.00 0.00 0.00 0.00 0.00
0.00 0.00 0.00 0.00 0.00 0.00 0.00 0.00 0.00 0.00 0.00 0.00 0.00 0.00 0.00 0.00 0.00 0.00 0.00 0.00 0.00 0.00 0.00 0.00 0.00 0.00 0.00 0.00 0.00 0.00 0.00 0.00 0.00
MSLP
1017.11 1017.51 1017.82 1018.08 1018.32 1018.53 1018.79 1019.12 1019.40 1019.59 1019.78 1019.99 1020.09 1020.16 1020.15 1020.17 1020.20 1020.25 1020.07 1020.02 1019.85 1019.98 1020.08 1020.19 1020.22 1020.26 1020.27 1020.26 1020.15 1020.12 1020.09 1019.90 1019.74
1017.50 1017.85 1018.17 1018.40 1018.65 1018.88 1019.17 1019.47 1019.75 1019.96 1020.24 1020.43 1020.61 1020.62 1020.68 1020.71 1020.73 1020.71 1020.51 1020.30 1020.17 1020.45 1020.59 1020.70 1020.81 1020.91 1020.91 1020.85 1020.80 1020.74 1020.71 1020.45 1020.33
1017.82 1018.19 1018.47 1018.73 1018.96 1019.20 1019.53 1019.80 1020.07 1020.24 1020.56 1020.81 1020.93 1021.00 1021.11 1021.21 1021.26 1021.22 1020.95 1020.67 1020.66 1020.96 1021.19 1021.28 1021.37 1021.47 1021.49 1021.54 1021.44 1021.39 1021.34 1021.19 1020.88
1018.11 1018.49 1018.79 1019.03 1019.27 1019.58 1019.88 1020.16 1020.43 1020.73 1020.92 1021.24 1021.31 1021.48 1021.67 1021.75 1021.76 1021.59 1021.46 1021.15 1021.14 1021.47 1021.70 1021.85 1021.85 1021.98 1022.04 1022.04 1022.00 1021.94 1021.90 1021.73 1021.64
1018.39 1018.80 1019.14 1019.35 1019.62 1019.99 1020.25 1020.60 1020.93 1021.23 1021.43 1021.47 1021.84 1022.11 1022.23 1022.26 1022.18 1022.09 1021.95 1021.62 1021.73 1021.96 1022.17 1022.41 1022.49 1022.55 1022.57 1022.64 1022.61 1022.53 1022.45 1022.29 1022.16
1018.73 1019.07 1019.45 1019.66 1020.02 1020.40 1020.70 1021.04 1021.43 1021.73 1021.86 1022.01 1022.16 1022.52 1022.86 1022.83 1022.76 1022.62 1022.35 1022.26 1022.39 1022.43 1022.64 1022.84 1022.99 1023.05 1023.09 1023.12 1023.15 1023.13 1022.93 1022.94 1022.77
1018.94 1019.32 1019.65 1019.89 1020.28 1020.78 1021.10 1021.47 1021.86 1022.27 1022.56 1022.72 1022.77 1023.14 1023.40 1023.38 1023.10 1023.04 1022.83 1022.81 1022.93 1022.98 1023.23 1023.30 1023.32 1023.48 1023.69 1023.73 1023.71 1023.77 1023.62 1023.51 1023.27
1019.21 1019.59 1019.87 1020.27 1020.68 1021.30 1021.61 1022.05 1022.42 1022.81 1023.05 1023.30 1023.42 1023.52 1023.62 1023.57 1023.50 1023.37 1023.34 1023.31 1023.39 1023.41 1023.50 1023.69 1023.75 1023.88 1023.96 1024.10 1024.16 1024.18 1024.17 1024.15 1023.94
1019.48 1019.85 1020.18 1020.39 1021.12 1021.66 1022.09 1022.52 1022.92 1023.23 1023.51 1023.62 1023.83 1023.99 1024.07 1024.09 1024.03 1024.00 1024.01 1023.86 1023.83 1023.81 1023.86 1024.03 1024.11 1024.19 1024.32 1024.51 1024.57 1024.64 1024.58 1024.63 1024.63
1019.58 1020.07 1020.31 1020.59 1021.41 1021.81 1022.45 1022.80 1023.16 1023.60 1023.92 1024.11 1024.23 1024.34 1024.39 1024.48 1024.58 1024.60 1024.50 1024.48 1024.40 1024.41 1024.40 1024.46 1024.45 1024.55 1024.72 1024.81 1024.90 1024.96 1025.06 1025.12 1025.03
1019.61 1020.22 1020.46 1020.94 1021.41 1022.03 1022.39 1022.87 1023.43 1023.95 1024.25 1024.67 1024.71 1024.76 1024.91 1025.09 1025.20 1025.15 1025.08 1025.01 1024.88 1024.90 1024.93 1024.88 1024.90 1024.91 1025.04 1025.23 1025.40 1025.41 1025.41 1025.43 1025.53
1019.74 1020.39 1020.89 1021.23 1021.70 1022.21 1022.66 1023.28 1023.79 1024.32 1024.66 1025.08 1025.18 1025.31 1025.45 1025.57 1025.66 1025.68 1025.70 1025.52 1025.44 1025.44 1025.29 1025.44 1025.46 1025.46 1025.44 1025.65 1025.78 1025.85 1025.85 1025.87 1025.84
1019.74 1020.37 1021.00 1021.38 1021.85 1022.26 1022.83 1023.41 1024.16 1024.69 1025.12 1025.52 1025.64 1025.83 1025.93 1026.08 1026.11 1026.12 1026.10 1026.15 1026.16 1026.11 1026.04 1025.95 1025.97 1025.98 1025.98 1026.04 1025.96 1026.09 1026.14 1026.18 1026.25
1019.43 1020.38 1021.09 1021.36 1021.97 1022.39 1022.89 1023.80 1023.99 1024.93 1025.44 1025.74 1026.10 1026.24 1026.39 1026.44 1026.44 1026.55 1026.62 1026.63 1026.69 1026.74 1026.57 1026.51 1026.46 1026.40 1026.39 1026.37 1026.34 1026.38 1026.23 1026.33 1026.48
1019.36 1020.32 1020.99 1021.42 1021.99 1022.54 1022.99 1023.66 1024.36 1024.88 1025.36 1025.92 1026.43 1026.70 1026.70 1026.71 1026.84 1026.87 1026.88 1026.97 1027.02 1027.06 1027.10 1027.06 1026.98 1026.83 1026.81 1026.77 1026.72 1026.68 1026.64 1026.53 1026.61
1019.22 1020.10 1020.75 1021.27 1021.82 1022.33 1022.83 1023.68 1024.34 1025.22 1025.44 1026.19 1026.86 1027.14 1027.09 1027.08 1027.05 1027.10 1027.13 1027.14 1027.15 1027.22 1027.38 1027.41 1027.35 1027.27 1027.16 1027.14 1027.07 1027.02 1026.97 1026.87 1027.01
1018.87 1019.73 1020.48 1020.95 1021.50 1022.10 1022.67 1023.27 1024.29 1024.97 1025.28 1025.83 1026.46 1027.35 1027.58 1027.34 1027.30 1027.26 1027.19 1027.24 1027.25 1027.32 1027.41 1027.55 1027.56 1027.55 1027.53 1027.53 1027.43 1027.36 1027.24 1027.08 1027.26
1018.41 1019.25 1020.02 1020.64 1021.01 1021.79 1022.32 1022.86 1023.38 1024.39 1025.13 1025.15 1025.46 1026.66 1026.96 1027.25 1027.39 1027.35 1027.34 1027.39 1027.45 1027.41 1027.33 1027.47 1027.60 1027.60 1027.64 1027.69 1027.73 1027.63 1027.54 1027.36 1027.44
1018.16 1018.88 1019.63 1020.25 1020.71 1021.45 1021.95 1022.37 1023.00 1023.69 1024.43 1025.09 1025.05 1025.08 1025.42 1026.45 1027.47 1027.44 1027.33 1027.39 1027.55 1027.46 1027.44 1027.49 1027.54 1027.58 1027.61 1027.72 1027.80 1027.82 1027.64 1027.57 1027.55
1017.73 1018.38 1019.17 1019.81 1020.31 1020.98 1021.60 1022.20 1022.76 1023.35 1023.91 1024.40 1024.90 1025.16 1025.32 1025.60 1026.27 1027.24 1027.45 1027.40 1027.32 1027.27 1027.26 1027.34 1027.45 1027.46 1027.52 1027.68 1027.73 1027.81 1027.70 1027.69 1027.59
Thickness
5721 5721 5721 5720 5719 5719 5718 5718 5717 5717 5717 5716 5717 5717 5717 5718 5718 5717 5717 5717 5716 5714 5712 5710 5708 5706 5704 5702 5701 5700 5697 5696 5695
5718 5718 5718 5717 5716 5716 5716 5716 5715 5715 5714 5713 5713 5714 5714 5715 5715 5715 5716 5716 5715 5712 5709 5707 5705 5702 5700 5699 5698 5696 5694 5693 5692
5715 5715 5715 5714 5713 5713 5713 5713 5713 5713 5712 5711 5712 5712 5712 5712 5712 5712 5713 5713 5712 5709 5706 5704 5702 5699 5697 5695 5694 5692 5690 5689 5689
5712 5712 5712 5711 5711 5711 5711 5710 5710 5710 5710 5709 5710 5710 5710 5710 5710 5710 5710 5710 5709 5706 5703 5700 5698 5696 5694 5692 5690 5688 5686 5685 5683
5709 5709 5709 5708 5709 5708 5708 5708 5707 5706 5706 5708 5707 5706 5706 5707 5707 5707 5706 5707 5705 5703 5700 5696 5694 5692 5690 5688 5686 5685 5683 5681 5680
5706 5706 5707 5706 5706 5705 5705 5704 5703 5703 5703 5704 5705 5704 5702 5703 5703 5703 5703 5702 5700 5699 5696 5693 5690 5688 5687 5684 5682 5680 5680 5677 5677
5703 5704 5704 5704 5704 5702 5702 5702 5700 5700 5700 5701 5702 5700 5698 5698 5699 5699 5699 5698 5696 5695 5692 5690 5688 5686 5683 5680 5678 5676 5675 5674 5673
5701 5701 5702 5701 5700 5698 5698 5698 5697 5696 5696 5696 5697 5697 5696 5697 5696 5696 5695 5694 5693 5691 5689 5687 5686 5683 5680 5677 5675 5672 5670 5668 5668
5697 5698 5699 5700 5697 5696 5695 5694 5694 5693 5693 5693 5693 5693 5692 5692 5692 5690 5690 5690 5689 5688 5687 5684 5682 5680 5677 5674 5671 5669 5667 5664 5662
5694 5695 5696 5697 5695 5693 5691 5690 5690 5689 5688 5688 5688 5688 5688 5688 5687 5686 5686 5685 5685 5683 5682 5680 5678 5676 5674 5671 5668 5666 5663 5660 5658
5689 5690 5692 5692 5693 5690 5689 5687 5686 5685 5684 5683 5683 5683 5683 5683 5682 5682 5681 5680 5680 5679 5677 5676 5675 5673 5671 5668 5664 5662 5660 5657 5654
5685 5685 5686 5687 5688 5686 5684 5682 5681 5679 5678 5677 5678 5678 5677 5677 5677 5677 5676 5676 5675 5674 5674 5672 5670 5669 5668 5664 5662 5659 5656 5653 5651
5680 5680 5681 5682 5682 5682 5680 5678 5675 5674 5673 5672 5672 5671 5671 5671 5671 5671 5671 5670 5670 5669 5668 5667 5666 5665 5664 5662 5660 5657 5654 5651 5648
5677 5675 5675 5676 5677 5676 5676 5672 5673 5669 5667 5667 5666 5666 5665 5665 5665 5666 5665 5665 5664 5664 5663 5663 5663 5662 5660 5658 5658 5655 5653 5649 5646
5672 5670 5670 5671 5671 5671 5671 5669 5666 5666 5665 5664 5660 5659 5660 5660 5660 5660 5661 5660 5660 5659 5659 5659 5659 5658 5657 5655 5654 5653 5650 5648 5645
5668 5667 5666 5666 5667 5667 5667 5664 5663 5658 5660 5656 5653 5652 5653 5654 5655 5655 5656 5656 5657 5656 5654 5655 5656 5656 5654 5652 5651 5650 5647 5645 5641
5666 5664 5663 5662 5663 5664 5664 5662 5658 5655 5656 5655 5652 5646 5646 5649 5650 5651 5652 5653 5653 5653 5652 5651 5652 5653 5652 5650 5648 5647 5645 5643 5639
5664 5663 5660 5659 5661 5660 5660 5660 5660 5656 5652 5656 5654 5645 5645 5644 5645 5647 5649 5649 5649 5650 5651 5650 5650 5650 5650 5648 5646 5644 5643 5641 5637
5660 5660 5658 5657 5657 5657 5657 5658 5657 5656 5654 5651 5654 5655 5654 5645 5640 5643 5646 5646 5646 5647 5648 5648 5648 5648 5648 5646 5644 5642 5641 5639 5636
5658 5657 5656 5656 5655 5654 5654 5654 5654 5654 5653 5651 5649 5650 5650 5649 5646 5640 5641 5642 5643 5644 5646 5647 5647 5646 5646 5644 5643 5640 5639 5636 5635